Location: Battersea Observatory
(44.4318°N, 76.3841°W)
Time: 05:40:02
(UTC-05:00)

S-56A Canister/Altair - All Passes

Search period start: 19 January 2022 00:00
Search period end: 29 January 2022 00:00
Orbit: 633 x 2499 km, 38.9° (Epoch: 18 January)

Date Brightness Start Highest point End Pass type
(mag) Time Alt. Az. Time Alt. Az. Time Alt. Az.
19 Jan - 08:37:41 10° S 08:41:37 21° SE 08:46:32 10° E daylight
19 Jan - 10:38:36 10° WSW 10:44:29 52° SSE 10:53:18 10° E daylight
19 Jan - 12:41:20 10° W 12:48:40 59° S 12:59:50 10° ESE daylight
19 Jan - 14:44:54 10° W 14:53:24 41° SSW 15:05:15 10° SE daylight
19 Jan - 16:51:01 10° WSW 16:58:02 18° SW 17:06:14 10° S daylight
20 Jan - 08:06:01 10° S 08:09:13 16° SE 08:12:58 10° ESE daylight
20 Jan - 10:06:24 10° SW 10:11:52 47° SSE 10:19:52 10° E daylight
20 Jan - 12:08:58 10° W 12:15:48 59° S 12:26:15 10° ESE daylight
20 Jan - 14:12:21 10° W 14:20:23 42° SSW 14:31:52 10° SE daylight
20 Jan - 16:17:51 10° WSW 16:24:59 20° SW 16:33:36 10° S daylight
21 Jan - 07:34:41 10° SSE 07:36:50 13° SE 07:39:11 10° ESE daylight
21 Jan - 09:34:13 10° SW 09:39:18 42° SSE 09:46:30 10° E daylight
21 Jan - 11:36:38 10° WSW 11:43:01 58° S 11:52:43 10° ESE daylight
21 Jan - 13:39:50 10° W 13:47:25 44° SSW 13:58:26 10° SE daylight
21 Jan - 15:44:51 10° W 15:51:59 22° SW 16:00:50 10° S daylight
22 Jan - 09:02:05 10° SW 09:06:47 37° SSE 09:13:12 10° E daylight
22 Jan - 11:04:19 10° WSW 11:10:16 57° S 11:19:15 10° ESE daylight
22 Jan - 13:07:24 10° W 13:14:31 45° SSW 13:25:00 10° SE daylight
22 Jan - 15:11:59 10° W 15:19:00 23° SSW 15:27:55 10° SSE daylight
23 Jan - 08:29:58 10° SW 08:34:19 32° SSE 08:39:59 10° E daylight
23 Jan - 10:32:03 10° WSW 10:37:36 55° S 10:45:50 10° ESE daylight
23 Jan - 12:35:00 10° W 12:41:39 46° SSW 12:51:34 10° SE daylight
23 Jan - 14:39:14 10° W 14:46:03 24° SSW 14:54:56 10° SSE daylight
24 Jan - 07:57:54 10° SSW 08:01:54 27° SSE 08:06:49 10° E daylight
24 Jan - 09:59:47 10° WSW 10:05:00 53° S 10:12:31 10° E daylight
24 Jan - 12:02:38 10° W 12:08:53 47° SSW 12:18:10 10° SE daylight
24 Jan - 14:06:35 10° W 14:13:08 26° SSW 14:21:52 10° SSE daylight
25 Jan - 07:25:52 10° SSW 07:29:28 23° SSE 07:33:43 10° E daylight
25 Jan - 09:27:32 10° WSW 09:32:26 50° S 09:39:17 10° E daylight
25 Jan - 11:30:18 10° W 11:36:09 47° S 11:44:49 10° ESE daylight
25 Jan - 13:34:01 10° W 13:40:17 27° SSW 13:48:46 10° SSE daylight
26 Jan - 06:53:53 10° SSW 06:57:05 19° SSE 07:00:39 10° ESE visible
26 Jan - 08:55:18 10° WSW 08:59:55 46° S 09:06:08 10° E daylight
26 Jan - 10:57:59 10° W 11:03:29 48° S 11:11:30 10° ESE daylight
26 Jan - 13:01:30 10° W 13:07:28 28° SSW 13:15:39 10° SSE daylight
27 Jan - 06:21:57 10° S 06:24:41 16° SSE 06:27:35 10° ESE visible
27 Jan - 08:23:03 10° WSW 08:27:27 42° SSE 08:33:05 10° E daylight
27 Jan - 10:25:42 10° W 10:30:52 48° S 10:38:15 10° ESE daylight
27 Jan - 12:29:03 10° W 12:34:43 29° SSW 12:42:30 10° SSE daylight
27 Jan - 14:37:17 10° SW 14:38:45 10° SW 14:40:17 10° SSW daylight
28 Jan - 05:50:10 10° S 05:52:17 13° SSE 05:54:27 10° ESE visible
28 Jan - 07:50:47 10° SW 07:55:00 39° SSE 08:00:07 10° E daylight
28 Jan - 09:53:24 10° WSW 09:58:17 48° S 10:05:05 10° ESE daylight
28 Jan - 11:56:39 10° W 12:02:00 30° SSW 12:09:24 10° SE daylight
28 Jan - 14:03:31 10° SW 14:05:57 11° SW 14:08:37 10° SSW daylight
